Temp
39 37 36 36 35 33 32 31 29 28 27 25 25 25 24 24 24 25 25 26 27 27 28 27 27 25 24 24 24 24 24 23 23
40 38 37 36 36 34 32 31 30 29 28 26 26 25 25 24 24 24 26 26 26 27 27 28 26 25 24 24 24 24 24 24 23
40 39 37 37 36 36 34 32 31 29 28 27 26 26 25 25 25 24 25 26 25 26 27 26 27 25 25 25 24 24 24 24 24
40 39 39 38 38 36 35 34 32 30 29 28 27 27 26 26 26 25 25 25 25 25 26 26 25 25 25 25 25 24 24 24 25
40 40 40 39 39 38 36 34 33 32 31 29 28 28 26 26 26 26 26 25 25 25 25 25 25 25 25 25 25 25 24 24 25
38 38 37 38 39 38 37 35 34 33 32 31 30 28 28 27 26 26 26 25 25 25 25 25 26 25 25 25 25 25 24 24 24
37 37 37 37 37 38 37 36 34 33 33 32 31 30 29 28 27 26 26 26 25 25 25 24 25 25 25 25 25 25 25 24 24
36 37 37 36 36 36 35 35 34 32 32 32 32 31 30 28 27 26 26 26 25 25 25 24 25 25 25 25 26 26 25 25 25
35 36 37 37 37 36 35 34 33 33 32 32 31 31 30 29 27 26 26 26 25 25 25 25 24 25 25 25 26 27 26 25 25
35 36 36 37 38 37 37 36 34 33 32 31 31 29 29 28 27 26 26 26 25 25 25 25 24 24 25 25 25 26 26 25 25
36 37 37 37 38 39 38 37 37 35 32 30 30 29 28 28 27 26 26 25 25 25 25 25 25 24 25 25 25 25 26 25 24
36 36 37 37 37 37 36 36 36 34 32 31 29 29 28 27 27 26 26 25 25 25 25 25 25 24 24 24 25 25 25 25 23
37 37 37 36 36 35 34 33 34 33 33 31 29 29 28 27 27 27 26 26 25 25 25 25 25 25 25 24 25 25 24 24 25
32 34 34 34 33 33 33 32 32 33 32 32 30 29 29 28 27 26 26 26 25 25 25 26 25 26 25 25 24 25 24 24 23
30 32 33 32 31 32 31 30 30 31 31 31 30 29 29 28 27 27 27 26 25 25 25 25 25 25 25 26 25 24 25 24 23
30 31 31 31 32 30 29 28 30 30 29 29 29 28 28 28 27 26 27 26 25 26 25 26 26 27 26 27 27 25 24 24 23
28 28 28 28 28 28 27 27 28 27 26 27 27 27 27 27 27 26 26 27 27 27 28 26 27 28 28 28 27 27 26 22 22
26 26 26 26 27 26 25 24 24 24 24 25 27 27 27 27 27 27 27 26 28 28 28 29 28 28 28 27 27 26 23 20 18
22 22 23 22 22 22 23 23 23 22 22 23 24 26 27 29 29 30 29 29 28 27 27 26 27 27 27 28 26 26 23 20 20
19 20 20 21 20 22 22 19 19 19 22 22 23 24 24 26 25 28 28 28 29 29 26 24 25 25 25 25 25 24 23 20 20
Height
682 695 701 707 715 723 733 741 749 757 764 772 779 784 788 793 799 804 808 812 814 817 819 821 825 828 831 834 837 840 843 846 847
676 684 691 697 703 713 722 731 739 745 752 760 767 773 780 784 790 795 798 802 807 811 814 816 820 823 826 829 832 835 839 841 842
669 673 682 688 695 701 709 718 726 736 743 746 752 762 768 774 779 784 789 795 799 802 805 810 813 817 820 824 826 830 832 835 837
661 666 671 677 683 691 699 709 719 725 734 740 746 751 755 762 768 774 780 785 789 793 798 802 806 810 814 817 820 823 826 828 830
655 657 663 669 674 682 691 698 706 712 719 727 731 737 744 749 756 762 768 772 778 784 788 793 797 802 806 810 813 816 819 821 823
658 660 666 668 670 674 680 688 696 702 708 712 720 729 735 742 746 752 755 761 768 774 778 782 787 792 796 800 803 808 811 814 817
660 663 666 666 668 668 673 678 685 691 696 702 710 717 723 728 733 736 742 750 756 762 768 773 777 781 786 791 795 800 803 805 808
661 663 664 665 666 667 670 674 678 683 689 694 699 705 712 714 719 727 735 740 746 752 758 761 767 773 777 781 786 790 793 795 799
662 660 659 659 659 663 665 667 671 675 680 684 692 696 699 708 715 720 724 731 737 743 747 752 757 760 765 769 772 775 779 784 788
658 656 653 653 652 654 657 659 663 666 671 679 681 686 694 700 706 711 716 724 729 733 738 745 747 750 754 757 760 762 764 768 774
650 646 645 644 645 644 647 651 652 657 663 668 672 678 683 691 696 703 712 716 717 722 727 731 735 739 742 746 747 750 755 761 768
639 638 637 638 638 641 643 646 647 651 656 661 666 668 671 677 687 695 701 704 706 712 718 722 724 729 732 734 736 740 744 751 759
630 630 632 634 633 635 638 639 642 644 648 652 656 659 666 673 678 683 687 692 698 703 708 710 716 719 720 722 724 728 731 739 748
637 634 632 633 634 633 632 635 637 638 642 642 649 657 662 667 672 675 679 684 689 694 698 702 705 706 710 713 714 718 720 724 730
638 635 630 631 632 630 632 634 635 635 637 641 647 652 657 661 666 670 673 678 682 686 691 695 696 699 700 701 703 705 707 711 717
633 632 631 630 629 630 632 634 634 634 637 641 645 649 651 656 660 665 668 670 674 678 682 683 684 684 686 686 686 691 694 695 698
636 637 636 633 634 635 636 635 636 638 640 642 643 646 649 652 655 659 662 664 667 668 669 672 674 674 675 676 679 681 681 683 693
642 643 641 638 639 642 641 642 643 644 644 643 643 644 646 648 650 654 656 659 658 659 659 660 662 664 665 669 668 669 677 677 684
651 649 647 645 646 648 647 647 647 647 647 646 646 646 646 646 646 647 649 652 652 654 654 653 656 658 659 657 657 661 662 667 675
654 651 651 649 649 648 651 653 653 653 650 648 648 648 650 648 649 646 646 648 648 647 649 651 652 652 652 652 653 651 649 655 662
Wind_Speed
18 20 21 23 25 29 33 37 38 37 35 34 34 35 36 34 33 31 29 27 25 22 21 19 18 21 22 21 18 16 15 14 13
16 19 22 25 26 32 34 36 37 39 38 37 37 37 35 36 35 35 33 31 28 26 22 19 19 21 23 22 21 19 17 17 16
19 20 22 21 22 29 36 38 40 41 41 41 41 39 38 37 37 36 36 31 31 28 28 26 21 23 23 23 22 21 21 19 19
20 19 19 20 21 28 32 33 35 39 39 39 38 40 40 38 38 38 36 35 34 34 31 28 27 26 24 25 24 24 23 23 21
18 18 16 15 17 19 25 31 34 38 41 41 43 42 40 41 39 39 38 38 38 36 35 34 31 29 27 26 27 27 26 26 25
7 7 9 12 13 16 18 26 31 34 36 40 40 38 39 38 39 39 40 38 38 37 37 36 35 33 32 31 30 30 29 28 28
4 8 10 10 12 15 17 23 27 32 36 37 38 38 40 39 40 43 41 39 39 39 38 36 36 36 35 34 33 32 31 30 30
9 5 4 6 10 12 13 18 24 29 33 33 35 36 38 40 41 39 37 38 38 39 38 39 38 36 36 36 35 35 35 34 33
15 16 16 16 11 13 13 18 22 25 29 33 34 32 38 35 34 35 37 35 37 37 38 38 37 38 38 38 39 40 42 39 36
17 16 17 15 14 14 13 18 20 23 26 28 32 35 32 34 33 36 35 34 34 37 38 36 38 38 39 40 42 45 47 49 41
19 18 18 17 16 14 16 18 18 17 20 27 30 31 33 33 34 33 30 33 37 37 36 39 39 39 40 40 43 47 49 50 47
19 20 18 17 21 21 19 20 19 16 20 24 29 31 36 36 33 32 33 36 38 37 35 35 38 37 38 42 43 46 50 51 41
18 18 17 16 20 16 16 19 18 19 21 24 29 31 30 31 32 33 35 35 34 34 35 36 35 37 40 42 42 45 50 52 41
17 14 15 17 17 16 16 13 14 19 20 25 26 25 26 28 30 33 34 32 32 32 34 33 34 35 36 38 42 41 48 53 47
20 16 14 13 11 11 11 11 15 18 18 19 20 22 24 25 27 29 29 30 29 31 31 31 31 32 34 37 39 44 43 51 57
14 13 9 9 9 6 5 7 11 12 11 14 16 19 21 22 23 25 25 27 28 29 30 32 32 33 34 35 37 40 47 48 54
6 3 1 1 2 4 6 7 8 9 9 10 12 14 15 16 19 20 22 24 26 27 28 30 31 29 30 33 32 34 34 44 46
2 1 3 5 5 6 9 10 10 8 7 5 6 8 10 12 15 18 18 22 23 26 28 29 29 32 31 28 31 33 34 31 34
2 3 5 9 10 9 10 10 10 9 8 6 3 3 5 6 9 12 16 18 20 28 29 24 35 35 33 32 39 36 37 39 43
7 10 10 11 10 11 13 13 12 10 8 6 5 4 2 1 2 4 6 9 12 15 11 23 35 36 42 45 43 41 42 41 48
Wind_Direction
195 200 203 205 200 201 200 202 201 202 202 205 206 209 210 210 212 216 220 220 222 220 222 219 219 215 214 216 215 215 215 218 218
210 194 202 204 205 204 203 203 202 203 201 202 203 207 210 212 213 215 220 221 220 224 222 222 216 213 212 211 210 210 211 219 219
206 198 199 204 206 207 207 207 206 204 204 202 203 205 209 213 213 214 217 216 218 218 220 218 215 212 210 208 208 210 212 220 219
209 201 199 201 206 209 212 211 209 208 209 209 207 207 208 209 212 214 216 217 217 216 217 215 213 210 209 209 209 211 212 216 218
216 205 210 212 208 205 207 210 210 210 210 209 210 209 207 209 209 210 214 214 215 214 214 214 214 211 212 212 213 213 213 216 219
233 234 229 223 207 207 208 208 210 213 213 215 213 210 210 211 212 211 213 212 213 214 213 211 213 213 209 210 213 213 216 218 220
235 196 220 220 224 213 211 207 207 209 214 214 213 211 212 211 210 211 211 209 209 210 211 211 212 210 210 212 214 215 218 219 221
301 274 213 234 235 217 216 218 214 213 215 213 211 209 212 213 212 212 211 209 209 211 210 211 211 211 212 211 214 217 217 218 220
287 283 277 276 245 226 225 224 223 219 217 215 209 211 212 213 213 211 211 210 209 210 211 211 210 211 211 211 213 219 219 216 217
274 276 271 272 239 230 236 233 226 222 217 212 209 210 210 210 209 211 211 209 207 210 212 211 214 213 212 214 216 218 219 218 214
265 261 260 262 263 268 253 244 242 220 212 207 209 204 204 207 209 210 208 208 211 211 211 212 214 215 214 214 219 219 220 222 219
254 257 261 263 264 264 262 251 244 230 208 204 206 205 204 204 203 205 207 211 212 211 210 213 217 216 215 217 221 222 221 219 214
256 257 262 265 264 260 249 244 236 214 209 203 208 210 210 207 203 204 206 210 212 211 211 215 216 220 221 221 222 222 222 218 214
299 298 284 268 254 247 243 235 215 213 208 209 211 209 211 209 207 208 211 211 211 211 214 218 217 222 222 225 223 225 225 219 210
281 278 278 273 256 236 233 234 217 205 208 210 206 207 209 209 211 212 214 213 213 213 214 217 222 220 224 226 227 225 226 225 217
282 277 282 268 247 216 219 212 202 189 187 190 195 201 204 208 211 215 219 209 212 216 216 222 221 222 225 227 224 223 223 225 221
276 280 289 64 134 144 113 104 127 134 152 172 184 193 200 205 210 214 218 219 217 219 221 221 231 228 232 234 232 228 219 219 220
226 151 85 82 92 91 87 90 86 82 81 108 155 182 197 204 212 213 221 225 226 225 229 229 227 233 236 234 237 228 224 210 205
117 98 65 65 55 54 64 68 56 46 46 52 65 178 197 216 231 223 222 235 232 242 250 245 235 242 242 242 237 233 222 211 205
120 100 83 76 77 73 58 45 38 26 28 43 66 82 94 82 260 252 259 263 266 272 250 255 256 254 246 244 252 234 224 206 203